sat.trackr.live / text

‹ back to catalog

FOREST-3

NORAD 62682 · 2025-009CB

PAYLOAD ACTIVE UNKNOWN

§ Identity

Operator
Country
GER
Launch date
2025-01-14
Launch site
AFWTR
Launch vehicle
Mass (kg)
RCS (m²)

External: N2YO · Heavens-Above · Gunter

§ Orbital elements

Epoch: 2026-09-22T04:34:13.406880Z

Period
94.38 min
Inclination
97.3842°
Eccentricity
0.0005087
Mean motion
15.25800701 rev/d
Perigee alt
484.9 km
Apogee alt
491.9 km
Semi-major
6,866.5 km
B*
1.4817e-4
RAAN
343.4229°
Arg perigee
20.6774°
Mean anomaly
339.4669°
Rev number
15,122

§ Raw data

FOREST-31 62682U 25009CB  26265.19043295  .00003715  00000+0  14817-3 0  99932 62682  97.3842 343.4229 0005087  20.6774 339.4669 15.25800701151222

JSON: /api/v1/satellites/62682 · /tle

For live sub-satellite position, see the globe view (requires WebGL).

§ Visibility from observer

Set your observer location to see the next 7 days of passes ≥ 10°. The values pass through the URL so the page stays shareable.

No JS? Fill the form by hand. The geolocation button needs JavaScript.